Tahlequah, OK

7:11 PM CDT on July 20, 2017 (GMT -0500)
Tahlequah Municipal

Weather History for KTQH - December, 2012

Change the Weather History Date:

Thursday, December 20, 2012

  Actual Average (KMKO) Record (KMKO)
Temperature  
Mean Temperature 42 °F -  
Max Temperature 57 °F 47 °F 68 °F (2004)
Min Temperature 26 °F 26 °F 12 °F (1996)
Degree Days  
Heating Degree Days 22    
Moisture  
Dew Point 22 °F    
Average Humidity 58    
Maximum Humidity 81    
Minimum Humidity 39    
Precipitation  
Precipitation 0.00 in - - ()
Sea Level Pressure  
Sea Level Pressure 30.07 in    
Wind  
Wind Speed 19 mph (WNW)    
Max Wind Speed 31 mph    
Max Gust Speed 43 mph    
Visibility 10 miles    
Events Snow    
Averages and records for this station are not official NWS values.
T = Trace of Precipitation, MM = Missing Value Source: NWS Daily Summary

Daily Weather History Graph

Daily Weather History Graph

Search for Another Location

Airport or City:

Trip Planner

Search our weather history database for the weather conditions in past years. The results will help you decide how hot, cold, wet, or windy it might be!

Date:

Astronomy

Dec. 20, 2012 Rise Set
Actual Time 7:26 AM CST 5:09 PM CST
Civil Twilight 6:57 AM CST 5:38 PM CST
Nautical Twilight 6:25 AM CST 6:10 PM CST
Astronomical Twilight 5:54 AM CST 6:41 PM CST
Moon 12:18 PM CST (12/20) 12:24 AM CST (12/20)
Length of Visible Light 10h 40m
Length of Day
9h 43m
First Quarter, 55% of the Moon is Illuminated
Dec 20
First Quarter
Dec 28
Full
Jan 4
Last Quarter
Jan 11
New
Jan 18
First Quarter

Hourly Weather History & Observations

Time (CST) Temp. Windchill Dew Point Humidity Pressure Visibility Wind Dir Wind Speed Gust Speed Precip Events Conditions
12:15 AM 57.2 °F - 37.4 °F 48% 29.52 in 10.0 mi WSW 15.0 mph 25.3 mph N/A   Clear
12:35 AM 55.4 °F - 35.6 °F 47% 29.53 in 10.0 mi WSW 19.6 mph 24.2 mph N/A   Clear
1:15 AM 50.0 °F - 32.0 °F 50% 29.58 in 10.0 mi WSW 24.2 mph 32.2 mph N/A   Clear
1:35 AM 46.4 °F 38.5 °F 32.0 °F 57% 29.60 in 10.0 mi West 21.9 mph 35.7 mph N/A   Clear
1:55 AM 44.6 °F 37.4 °F 33.8 °F 66% 29.61 in 10.0 mi WSW 16.1 mph 26.5 mph N/A   Mostly Cloudy
2:15 AM 44.6 °F 37.2 °F 35.6 °F 71% 29.62 in 10.0 mi WSW 17.3 mph 27.6 mph N/A   Overcast
2:35 AM 44.6 °F 36.1 °F 35.6 °F 71% 29.64 in 10.0 mi West 21.9 mph 35.7 mph N/A   Overcast
2:55 AM 42.8 °F 33.8 °F 33.8 °F 70% 29.67 in 10.0 mi West 21.9 mph 32.2 mph N/A   Overcast
3:15 AM 41.0 °F 32.5 °F 32.0 °F 70% 29.69 in 10.0 mi West 17.3 mph 29.9 mph N/A   Overcast
3:35 AM 39.2 °F 28.0 °F 32.0 °F 75% 29.71 in 10.0 mi WNW 26.5 mph 39.1 mph N/A   Overcast
3:55 AM 35.6 °F 24.0 °F 30.2 °F 81% 29.74 in 10.0 mi West 23.0 mph 36.8 mph N/A   Overcast
4:15 AM 35.6 °F 22.3 °F 30.2 °F 81% 29.76 in 10.0 mi WNW 31.1 mph 42.6 mph N/A   Overcast
4:35 AM 35.6 °F 24.5 °F 28.4 °F 75% 29.78 in 10.0 mi West 20.7 mph 38.0 mph N/A   Mostly Cloudy
4:55 AM 35.6 °F 23.4 °F 28.4 °F 75% 29.80 in 10.0 mi WNW 25.3 mph 41.4 mph N/A   Mostly Cloudy
5:15 AM 33.8 °F 21.6 °F 28.4 °F 81% 29.82 in 10.0 mi WNW 23.0 mph 34.5 mph N/A   Mostly Cloudy
5:35 AM 33.8 °F 21.9 °F 28.4 °F 81% 29.84 in 10.0 mi WNW 21.9 mph 33.4 mph N/A Snow Light Snow
5:55 AM 33.8 °F 20.1 °F 28.4 °F 81% 29.86 in 10.0 mi WNW 29.9 mph 40.3 mph N/A   Mostly Cloudy
6:15 AM 33.8 °F 19.9 °F 26.6 °F 75% 29.89 in 10.0 mi WNW 31.1 mph 42.6 mph N/A   Overcast
6:55 AM 33.8 °F 21.9 °F 26.6 °F 75% 29.92 in 10.0 mi WNW 21.9 mph 41.4 mph N/A   Overcast
7:15 AM 33.8 °F 21.0 °F 26.6 °F 75% 29.94 in 10.0 mi WNW 25.3 mph 38.0 mph N/A   Overcast
7:35 AM 33.8 °F 22.8 °F 26.6 °F 75% 29.96 in 10.0 mi WNW 18.4 mph 40.3 mph N/A   Overcast
7:55 AM 33.8 °F 21.6 °F 26.6 °F 75% 29.99 in 10.0 mi WNW 23.0 mph 33.4 mph N/A   Overcast
8:15 AM 33.8 °F 22.2 °F 26.6 °F 75% 30.00 in 10.0 mi WNW 20.7 mph 34.5 mph N/A   Overcast
8:35 AM 33.8 °F 21.3 °F 26.6 °F 75% 30.02 in 10.0 mi WNW 24.2 mph 35.7 mph N/A   Overcast
8:55 AM 33.8 °F 20.5 °F 26.6 °F 75% 30.04 in 10.0 mi WNW 27.6 mph 38.0 mph N/A   Overcast
9:15 AM 33.8 °F 21.9 °F 26.6 °F 75% 30.05 in 10.0 mi WNW 21.9 mph 32.2 mph N/A   Mostly Cloudy
9:35 AM 33.8 °F 21.3 °F 24.8 °F 70% 30.06 in 10.0 mi WNW 24.2 mph 32.2 mph N/A   Mostly Cloudy
9:55 AM 33.8 °F 21.6 °F 23.0 °F 65% 30.08 in 10.0 mi WNW 23.0 mph 34.5 mph N/A   Mostly Cloudy
10:15 AM 33.8 °F 22.5 °F 23.0 °F 65% 30.09 in 10.0 mi WNW 19.6 mph 34.5 mph N/A   Mostly Cloudy
10:35 AM 35.6 °F 23.4 °F 23.0 °F 60% 30.11 in 10.0 mi WNW 25.3 mph 32.2 mph N/A   Scattered Clouds
10:55 AM 35.6 °F 24.2 °F 23.0 °F 60% 30.11 in 10.0 mi WNW 21.9 mph 34.5 mph N/A   Clear
11:15 AM 37.4 °F 26.9 °F 21.2 °F 52% 30.12 in 10.0 mi WNW 20.7 mph 31.1 mph N/A   Clear
11:35 AM 37.4 °F 26.9 °F 21.2 °F 52% 30.12 in 10.0 mi WNW 20.7 mph 31.1 mph N/A   Clear
11:55 AM 37.4 °F 26.4 °F 21.2 °F 52% 30.13 in 10.0 mi WNW 23.0 mph 33.4 mph N/A   Clear
12:15 PM 37.4 °F 27.2 °F 21.2 °F 52% 30.13 in 10.0 mi WNW 19.6 mph 33.4 mph N/A   Clear
12:35 PM 39.2 °F 28.0 °F 21.2 °F 49% 30.13 in 10.0 mi NW 26.5 mph 33.4 mph N/A   Clear
12:55 PM 39.2 °F 29.3 °F 21.2 °F 49% 30.13 in 10.0 mi WNW 20.7 mph 35.7 mph N/A   Clear
1:15 PM 41.0 °F 31.4 °F 21.2 °F 45% 30.14 in 10.0 mi WNW 21.9 mph 29.9 mph N/A   Clear
1:35 PM 41.0 °F 30.7 °F 21.2 °F 45% 30.14 in 10.0 mi WNW 25.3 mph 33.4 mph N/A   Clear
1:55 PM 41.0 °F 29.8 °F 19.4 °F 42% 30.16 in 10.0 mi WNW 29.9 mph 38.0 mph N/A   Clear
2:15 PM 41.0 °F 30.7 °F 19.4 °F 42% 30.16 in 10.0 mi NW 25.3 mph 41.4 mph N/A   Clear
2:35 PM 41.0 °F 31.4 °F 19.4 °F 42% 30.17 in 10.0 mi NW 21.9 mph 35.7 mph N/A   Clear
2:55 PM 41.0 °F 30.2 °F 19.4 °F 42% 30.18 in 10.0 mi WNW 27.6 mph 32.2 mph N/A   Clear
3:15 PM 41.0 °F 30.5 °F 19.4 °F 42% 30.19 in 10.0 mi NW 26.5 mph 31.1 mph N/A   Clear
3:35 PM 41.0 °F 31.9 °F 19.4 °F 42% 30.21 in 10.0 mi NW 19.6 mph 31.1 mph N/A   Clear
3:55 PM 41.0 °F 31.4 °F 17.6 °F 39% 30.22 in 10.0 mi NW 21.9 mph 34.5 mph N/A   Clear
4:15 PM 39.2 °F 29.6 °F 17.6 °F 42% 30.23 in 10.0 mi NW 19.6 mph 29.9 mph N/A   Clear
4:35 PM 39.2 °F 29.3 °F 17.6 °F 42% 30.24 in 10.0 mi NW 20.7 mph 27.6 mph N/A   Clear
4:55 PM 37.4 °F 29.8 °F 17.6 °F 45% 30.25 in 10.0 mi WNW 11.5 mph 23.0 mph N/A   Clear
5:15 PM 35.6 °F 26.2 °F 17.6 °F 48% 30.25 in 10.0 mi NW 15.0 mph 18.4 mph N/A   Clear
5:35 PM 35.6 °F 27.1 °F 17.6 °F 48% 30.26 in 10.0 mi WNW 12.7 mph 24.2 mph N/A   Clear
5:55 PM 35.6 °F 27.1 °F 15.8 °F 44% 30.27 in 10.0 mi WNW 12.7 mph 19.6 mph N/A   Clear
6:15 PM 35.6 °F 26.6 °F 14.0 °F 41% 30.27 in 10.0 mi WNW 13.8 mph 18.4 mph N/A   Clear
6:35 PM 33.8 °F 25.3 °F 14.0 °F 44% 30.29 in 10.0 mi WNW 11.5 mph 16.1 mph N/A   Clear
6:55 PM 33.8 °F 27.0 °F 14.0 °F 44% 30.29 in 10.0 mi WNW 8.1 mph - N/A   Clear
7:15 PM 33.8 °F 26.4 °F 14.0 °F 44% 30.30 in 10.0 mi WNW 9.2 mph - N/A   Clear
7:35 PM 32.0 °F 25.6 °F 14.0 °F 48% 30.31 in 10.0 mi WNW 6.9 mph - N/A   Clear
7:55 PM 32.0 °F 25.6 °F 14.0 °F 48% 30.31 in 10.0 mi WNW 6.9 mph - N/A   Clear
8:15 PM 32.0 °F 26.4 °F 14.0 °F 48% 30.31 in 10.0 mi WNW 5.8 mph - N/A   Clear
8:35 PM 32.0 °F 26.4 °F 14.0 °F 48% 30.31 in 10.0 mi WNW 5.8 mph - N/A   Clear
8:55 PM 30.2 °F 24.3 °F 14.0 °F 51% 30.32 in 10.0 mi WNW 5.8 mph - N/A   Clear
9:15 PM 30.2 °F 24.3 °F 14.0 °F 51% 30.32 in 10.0 mi WNW 5.8 mph - N/A   Clear
9:35 PM 32.0 °F 25.6 °F 14.0 °F 48% 30.33 in 10.0 mi WNW 6.9 mph - N/A   Clear
9:55 PM 30.2 °F 24.3 °F 14.0 °F 51% 30.33 in 10.0 mi WNW 5.8 mph - N/A   Clear
10:15 PM 30.2 °F 24.3 °F 14.0 °F 51% 30.34 in 10.0 mi WNW 5.8 mph - N/A   Clear
10:35 PM 30.2 °F 24.3 °F 14.0 °F 51% 30.34 in 10.0 mi WNW 5.8 mph - N/A   Clear
10:55 PM 30.2 °F 25.4 °F 15.8 °F 55% 30.34 in 10.0 mi WNW 4.6 mph - N/A   Clear
11:15 PM 28.4 °F 23.3 °F 15.8 °F 59% 30.34 in 10.0 mi WNW 4.6 mph - N/A   Clear
11:35 PM 28.4 °F 24.6 °F 15.8 °F 59% 30.34 in 10.0 mi WNW 3.5 mph - N/A   Clear
11:55 PM 26.6 °F - 15.8 °F 64% 30.34 in 10.0 mi Calm Calm - N/A   Clear